Time,TemperatureF,DewpointF,PressureIn,WindDirection,WindDirectionDegrees,WindSpeedMPH,WindSpeedGustMPH,Humidity,HourlyPrecipIn,Conditions,Clouds,dailyrainin,SoftwareType,DateUTC
2013-09-05 00:04:00,65.6,52.2,29.96,ENE,68,0.0,0.0,62,0.00,,,0.00,WUHU216HW,2013-09-05 06:04:00,
2013-09-05 00:09:00,65.3,51.9,29.96,ENE,68,0.0,0.0,62,0.00,,,0.00,WUHU216HW,2013-09-05 06:09:00,
2013-09-05 00:14:00,64.7,51.8,29.96,ENE,68,0.0,0.0,63,0.00,,,0.00,WUHU216HW,2013-09-05 06:14:00,
2013-09-05 00:20:00,64.4,51.4,29.96,ENE,68,0.0,0.0,63,0.00,,,0.00,WUHU216HW,2013-09-05 06:20:00,
2013-09-05 00:25:00,64.0,51.1,29.96,East,90,0.0,0.0,63,0.00,,,0.00,WUHU216HW,2013-09-05 06:25:00,
2013-09-05 00:30:00,63.5,51.0,29.96,East,90,0.0,0.0,64,0.00,,,0.00,WUHU216HW,2013-09-05 06:30:00,
2013-09-05 00:35:00,63.1,51.1,29.96,East,90,0.0,0.0,65,0.00,,,0.00,WUHU216HW,2013-09-05 06:35:00,
2013-09-05 00:40:00,62.9,51.3,29.96,East,90,0.0,0.0,66,0.00,,,0.00,WUHU216HW,2013-09-05 06:40:00,
2013-09-05 00:45:00,62.7,51.6,29.96,East,90,0.0,0.0,67,0.00,,,0.00,WUHU216HW,2013-09-05 06:45:00,
2013-09-05 00:50:00,62.7,52.0,29.96,East,90,0.0,0.0,68,0.00,,,0.00,WUHU216HW,2013-09-05 06:50:00,
2013-09-05 00:55:00,62.6,51.8,29.96,East,90,0.0,0.0,68,0.00,,,0.00,WUHU216HW,2013-09-05 06:55:00,
2013-09-05 01:00:00,62.4,51.7,29.96,East,90,0.0,0.0,68,0.00,,,0.00,WUHU216HW,2013-09-05 07:00:00,
2013-09-05 01:05:00,62.4,51.7,29.96,SSW,203,0.0,0.0,68,0.00,,,0.00,WUHU216HW,2013-09-05 07:05:00,
2013-09-05 01:10:00,62.6,51.8,29.96,SW,225,0.0,0.0,68,0.00,,,0.00,WUHU216HW,2013-09-05 07:10:00,
2013-09-05 01:15:00,62.7,52.0,29.96,SW,225,0.0,0.0,68,0.00,,,0.00,WUHU216HW,2013-09-05 07:15:00,
2013-09-05 01:20:00,62.7,51.6,29.96,SW,225,0.0,0.0,67,0.00,,,0.00,WUHU216HW,2013-09-05 07:20:00,
2013-09-05 01:25:00,62.6,51.8,29.96,SW,225,0.0,0.0,68,0.00,,,0.00,WUHU216HW,2013-09-05 07:25:00,
2013-09-05 01:30:00,62.4,51.7,29.96,SW,225,0.0,0.0,68,0.00,,,0.00,WUHU216HW,2013-09-05 07:30:00,
2013-09-05 01:35:00,62.6,51.8,29.96,SW,225,0.0,0.0,68,0.00,,,0.00,WUHU216HW,2013-09-05 07:35:00,
2013-09-05 01:40:00,62.6,51.8,29.96,SW,225,0.0,0.0,68,0.00,,,0.00,WUHU216HW,2013-09-05 07:40:00,
2013-09-05 01:46:00,62.6,51.8,29.96,SW,225,0.0,0.0,68,0.00,,,0.00,WUHU216HW,2013-09-05 07:46:00,
2013-09-05 01:51:00,62.7,52.0,29.96,SW,225,0.0,0.0,68,0.00,,,0.00,WUHU216HW,2013-09-05 07:51:00,
2013-09-05 01:56:00,62.9,52.2,29.96,SW,225,0.0,0.0,68,0.00,,,0.00,WUHU216HW,2013-09-05 07:56:00,
2013-09-05 02:01:00,63.1,51.9,29.96,SW,225,0.0,0.0,67,0.00,,,0.00,WUHU216HW,2013-09-05 08:01:00,
2013-09-05 02:06:00,63.1,51.9,29.96,SW,225,0.0,0.0,67,0.00,,,0.00,WUHU216HW,2013-09-05 08:06:00,
2013-09-05 02:11:00,62.2,51.1,29.96,SW,225,0.0,0.0,67,0.00,,,0.00,WUHU216HW,2013-09-05 08:11:00,
2013-09-05 02:16:00,61.5,50.4,29.96,SW,225,0.0,0.0,67,0.00,,,0.00,WUHU216HW,2013-09-05 08:16:00,
2013-09-05 02:21:00,61.1,50.5,29.96,SW,225,0.0,0.0,68,0.00,,,0.00,WUHU216HW,2013-09-05 08:21:00,
2013-09-05 02:26:00,60.9,50.8,29.96,SW,225,0.0,0.0,69,0.00,,,0.00,WUHU216HW,2013-09-05 08:26:00,
2013-09-05 02:31:00,60.9,51.2,29.96,SW,225,0.0,0.0,70,0.00,,,0.00,WUHU216HW,2013-09-05 08:31:00,
2013-09-05 02:36:00,61.5,51.3,29.95,ESE,113,0.0,0.0,69,0.00,,,0.00,WUHU216HW,2013-09-05 08:36:00,
2013-09-05 02:41:00,61.5,51.7,29.95,ESE,113,0.0,0.0,70,0.00,,,0.00,WUHU216HW,2013-09-05 08:41:00,
2013-09-05 02:46:00,61.5,52.0,29.95,NE,45,0.0,0.0,71,0.00,,,0.00,WUHU216HW,2013-09-05 08:46:00,
2013-09-05 02:51:00,61.8,52.0,29.95,ENE,68,0.0,0.0,70,0.00,,,0.00,WUHU216HW,2013-09-05 08:51:00,
2013-09-05 02:57:00,62.9,52.0,29.95,East,90,0.0,0.0,68,0.00,,,0.00,WUHU216HW,2013-09-05 08:57:00,
2013-09-05 03:02:00,63.5,52.3,29.95,ENE,68,0.0,0.0,67,0.00,,,0.00,WUHU216HW,2013-09-05 09:02:00,
2013-09-05 03:07:00,62.9,52.2,29.95,West,270,0.0,0.0,68,0.00,,,0.00,WUHU216HW,2013-09-05 09:07:00,
2013-09-05 03:12:00,62.4,52.1,29.95,SW,225,0.0,0.0,69,0.00,,,0.00,WUHU216HW,2013-09-05 09:12:00,
2013-09-05 03:17:00,62.0,52.2,29.95,SW,225,0.0,0.0,70,0.00,,,0.00,WUHU216HW,2013-09-05 09:17:00,
2013-09-05 03:22:00,61.8,52.4,29.95,SW,225,0.0,0.0,71,0.00,,,0.00,WUHU216HW,2013-09-05 09:22:00,
2013-09-05 03:27:00,62.2,52.7,29.94,SSW,203,0.0,0.0,71,0.00,,,0.00,WUHU216HW,2013-09-05 09:27:00,
2013-09-05 03:32:00,62.7,52.4,29.95,South,180,0.0,0.0,69,0.00,,,0.00,WUHU216HW,2013-09-05 09:32:00,
2013-09-05 03:37:00,63.6,52.5,29.94,SSW,203,0.0,0.0,67,0.00,,,0.00,WUHU216HW,2013-09-05 09:37:00,
2013-09-05 03:43:00,64.2,52.5,29.95,SSW,203,0.0,0.0,66,0.00,,,0.00,WUHU216HW,2013-09-05 09:43:00,
2013-09-05 03:48:00,64.7,52.2,29.95,SSW,203,0.0,0.0,64,0.00,,,0.00,WUHU216HW,2013-09-05 09:48:00,
2013-09-05 03:53:00,65.1,52.5,29.95,SSW,203,0.0,0.0,64,0.00,,,0.00,WUHU216HW,2013-09-05 09:53:00,
2013-09-05 03:58:00,65.1,52.1,29.95,SW,225,0.0,0.0,63,0.00,,,0.00,WUHU216HW,2013-09-05 09:58:00,
2013-09-05 04:03:00,65.3,52.3,29.95,SW,225,0.0,0.0,63,0.00,,,0.00,WUHU216HW,2013-09-05 10:03:00,
2013-09-05 04:08:00,65.3,51.9,29.95,SW,225,0.0,0.0,62,0.00,,,0.00,WUHU216HW,2013-09-05 10:08:00,
2013-09-05 04:13:00,65.4,52.0,29.95,WSW,248,0.0,0.0,63,0.00,,,0.00,WUHU216HW,2013-09-05 10:13:00,
2013-09-05 04:18:00,65.1,52.1,29.95,SW,225,0.0,0.0,63,0.00,,,0.00,WUHU216HW,2013-09-05 10:18:00,
2013-09-05 04:23:00,64.9,51.9,29.95,SW,225,0.0,0.0,63,0.00,,,0.00,WUHU216HW,2013-09-05 10:23:00,
2013-09-05 04:28:00,64.7,51.8,29.95,SW,225,0.0,0.0,63,0.00,,,0.00,WUHU216HW,2013-09-05 10:28:00,
2013-09-05 04:34:00,65.1,52.1,29.95,SSW,203,0.0,0.0,63,0.00,,,0.00,WUHU216HW,2013-09-05 10:34:00,
2013-09-05 04:39:00,65.1,52.1,29.95,SSW,203,0.0,0.0,63,0.00,,,0.00,WUHU216HW,2013-09-05 10:39:00,
2013-09-05 04:44:00,65.4,52.0,29.96,SW,225,0.0,0.0,62,0.00,,,0.00,WUHU216HW,2013-09-05 10:44:00,
2013-09-05 04:49:00,65.4,52.0,29.96,SSW,203,0.0,0.0,62,0.00,,,0.00,WUHU216HW,2013-09-05 10:49:00,
2013-09-05 04:54:00,65.4,52.0,29.95,SSW,203,0.0,0.0,62,0.00,,,0.00,WUHU216HW,2013-09-05 10:54:00,
2013-09-05 04:59:00,65.1,51.9,29.95,SSW,203,0.0,0.0,63,0.00,,,0.00,WUHU216HW,2013-09-05 10:59:00,
2013-09-05 05:04:00,64.5,52.0,29.95,SSW,203,0.0,0.0,64,0.00,,,0.00,WUHU216HW,2013-09-05 11:04:00,
2013-09-05 05:09:00,64.4,51.9,29.95,SSW,203,0.0,0.0,64,0.00,,,0.00,WUHU216HW,2013-09-05 11:09:00,
2013-09-05 05:14:00,64.4,51.9,29.96,SW,225,0.0,0.0,64,0.00,,,0.00,WUHU216HW,2013-09-05 11:14:00,
2013-09-05 05:19:00,64.2,52.1,29.97,SW,225,0.0,0.0,65,0.00,,,0.00,WUHU216HW,2013-09-05 11:19:00,
2013-09-05 05:25:00,64.5,52.5,29.96,SW,225,0.0,0.0,65,0.00,,,0.00,WUHU216HW,2013-09-05 11:25:00,
2013-09-05 05:30:00,64.5,53.3,29.95,SSW,203,0.0,0.0,68,0.00,,,0.00,WUHU216HW,2013-09-05 11:30:00,
2013-09-05 05:35:00,64.0,53.7,29.96,SSE,158,0.0,0.0,69,0.00,,,0.00,WUHU216HW,2013-09-05 11:35:00,
2013-09-05 05:40:00,63.3,53.4,29.95,ENE,68,0.0,0.0,70,0.00,,,0.00,WUHU216HW,2013-09-05 11:40:00,
2013-09-05 05:45:00,63.1,53.2,29.94,ENE,68,0.0,0.0,70,0.00,,,0.00,WUHU216HW,2013-09-05 11:45:00,
2013-09-05 05:50:00,62.9,53.7,29.94,East,90,0.0,0.0,72,0.00,,,0.00,WUHU216HW,2013-09-05 11:50:00,
2013-09-05 05:55:00,62.6,53.4,29.94,East,90,0.0,0.0,72,0.00,,,0.00,WUHU216HW,2013-09-05 11:55:00,
2013-09-05 06:00:00,61.7,53.3,29.94,SW,225,3.1,3.1,74,0.00,,,0.00,WUHU216HW,2013-09-05 12:00:00,
2013-09-05 06:05:00,61.5,53.1,29.94,South,180,6.2,6.2,74,0.00,,,0.00,WUHU216HW,2013-09-05 12:05:00,
2013-09-05 06:11:00,62.2,53.4,29.94,SSW,203,4.6,6.2,73,0.00,,,0.00,WUHU216HW,2013-09-05 12:11:00,
2013-09-05 06:16:00,62.4,53.2,29.94,SSW,203,4.0,6.7,72,0.00,,,0.00,WUHU216HW,2013-09-05 12:16:00,
2013-09-05 06:21:00,62.9,53.7,29.94,South,180,0.0,6.7,72,0.00,,,0.00,WUHU216HW,2013-09-05 12:21:00,
2013-09-05 06:26:00,62.7,53.9,29.94,ENE,68,1.7,3.3,73,0.00,,,0.00,WUHU216HW,2013-09-05 12:26:00,
2013-09-05 06:31:00,62.2,53.4,29.94,ENE,68,0.0,3.3,73,0.00,,,0.00,WUHU216HW,2013-09-05 12:31:00,
2013-09-05 06:36:00,61.7,53.3,29.94,ENE,68,0.0,2.9,74,0.00,,,0.00,WUHU216HW,2013-09-05 12:36:00,
2013-09-05 06:41:00,61.5,53.5,29.94,ENE,68,0.0,0.0,74,0.00,,,0.00,WUHU216HW,2013-09-05 12:41:00,
2013-09-05 06:46:00,61.3,53.3,29.94,ENE,68,0.0,0.0,75,0.00,,,0.00,WUHU216HW,2013-09-05 12:46:00,
2013-09-05 06:51:00,61.1,53.5,29.94,ENE,68,1.1,1.1,76,0.00,,,0.00,WUHU216HW,2013-09-05 12:51:00,
2013-09-05 06:56:00,61.1,52.8,29.94,ENE,68,0.0,1.1,74,0.00,,,0.00,WUHU216HW,2013-09-05 12:56:00,
2013-09-05 07:02:00,61.3,53.0,29.94,ENE,68,0.0,0.0,74,0.00,,,0.00,WUHU216HW,2013-09-05 13:02:00,
2013-09-05 07:07:00,61.1,53.5,29.94,East,90,0.0,0.0,76,0.00,,,0.00,WUHU216HW,2013-09-05 13:07:00,
2013-09-05 07:12:00,60.6,53.0,29.94,East,90,0.0,0.0,76,0.00,,,0.00,WUHU216HW,2013-09-05 13:12:00,
2013-09-05 07:17:00,60.4,53.2,29.95,East,90,0.0,0.0,77,0.00,,,0.00,WUHU216HW,2013-09-05 13:17:00,
2013-09-05 07:22:00,60.4,53.2,29.94,SSE,158,0.0,0.0,77,0.00,,,0.00,WUHU216HW,2013-09-05 13:22:00,
2013-09-05 07:27:00,60.4,53.2,29.94,SSE,158,0.0,0.0,77,0.00,,,0.00,WUHU216HW,2013-09-05 13:27:00,
2013-09-05 07:32:00,60.0,53.2,29.95,SSW,203,0.0,1.7,78,0.00,,,0.00,WUHU216HW,2013-09-05 13:32:00,
2013-09-05 07:37:00,60.0,53.2,29.94,WSW,248,0.0,1.7,78,0.00,,,0.00,WUHU216HW,2013-09-05 13:37:00,
2013-09-05 07:42:00,60.0,53.2,29.95,WSW,248,0.0,0.0,78,0.00,,,0.00,WUHU216HW,2013-09-05 13:42:00,
2013-09-05 07:48:00,60.0,53.2,29.95,WSW,248,0.0,0.0,78,0.00,,,0.00,WUHU216HW,2013-09-05 13:48:00,
2013-09-05 07:53:00,59.9,53.0,29.95,WSW,248,0.0,0.0,78,0.00,,,0.00,WUHU216HW,2013-09-05 13:53:00,
2013-09-05 07:58:00,59.9,53.4,29.96,WSW,248,0.0,0.0,79,0.00,,,0.00,WUHU216HW,2013-09-05 13:58:00,
2013-09-05 08:03:00,59.9,53.4,29.98,WSW,248,0.0,0.0,79,0.00,,,0.00,WUHU216HW,2013-09-05 14:03:00,
2013-09-05 08:08:00,59.7,53.9,29.99,SW,225,5.5,5.5,81,0.00,,,0.00,WUHU216HW,2013-09-05 14:08:00,
2013-09-05 08:13:00,59.3,53.8,29.99,South,180,3.5,8.5,82,0.00,,,0.00,WUHU216HW,2013-09-05 14:13:00,
2013-09-05 08:18:00,59.5,54.3,30.00,WNW,293,0.0,8.5,83,0.00,,,0.00,WUHU216HW,2013-09-05 14:18:00,
2013-09-05 08:23:00,59.0,54.1,29.99,WNW,293,0.0,2.9,84,0.00,,,0.00,WUHU216HW,2013-09-05 14:23:00,
2013-09-05 08:28:00,58.2,53.7,29.99,ENE,68,0.6,0.6,85,0.00,,,0.00,WUHU216HW,2013-09-05 14:28:00,
2013-09-05 08:33:00,58.1,54.2,29.99,ENE,68,0.0,0.6,87,0.00,,,0.00,WUHU216HW,2013-09-05 14:33:00,
2013-09-05 08:38:00,57.9,54.3,29.99,SSE,158,4.4,4.4,88,0.00,,,0.00,WUHU216HW,2013-09-05 14:38:00,
2013-09-05 08:44:00,57.9,54.7,30.00,SSW,203,1.5,4.4,89,0.00,,,0.00,WUHU216HW,2013-09-05 14:44:00,
2013-09-05 08:49:00,58.1,55.0,29.99,South,180,2.6,3.3,90,0.00,,,0.00,WUHU216HW,2013-09-05 14:49:00,
2013-09-05 08:54:00,58.1,55.2,30.01,SW,225,2.4,5.3,90,0.00,,,0.00,WUHU216HW,2013-09-05 14:54:00,
2013-09-05 09:03:00,58.2,55.4,30.02,SSW,203,6.9,6.9,90,0.00,,,0.00,WUHU216HW,2013-09-05 15:03:00,
2013-09-05 09:08:00,58.8,55.6,30.01,SSW,203,3.8,6.9,89,0.00,,,0.00,WUHU216HW,2013-09-05 15:08:00,
2013-09-05 09:14:00,59.1,55.4,30.02,SW,225,2.6,8.0,88,0.00,,,0.00,WUHU216HW,2013-09-05 15:14:00,
2013-09-05 09:19:00,59.3,55.5,30.02,SSW,203,6.0,8.0,87,0.00,,,0.00,WUHU216HW,2013-09-05 15:19:00,
2013-09-05 09:24:00,59.5,55.6,30.04,SW,225,3.1,8.7,87,0.00,,,0.00,WUHU216HW,2013-09-05 15:24:00,
2013-09-05 09:29:00,59.5,56.0,30.03,SSW,203,1.3,8.7,88,0.02,,,0.00,WUHU216HW,2013-09-05 15:29:00,
2013-09-05 09:34:00,59.3,56.1,30.02,South,180,0.0,7.8,89,0.06,,,0.04,WUHU216HW,2013-09-05 15:34:00,
2013-09-05 09:39:00,59.1,56.3,30.02,South,180,0.0,2.6,90,0.06,,,0.06,WUHU216HW,2013-09-05 15:39:00,
2013-09-05 09:44:00,58.8,56.2,30.02,ESE,113,0.0,2.6,91,0.06,,,0.06,WUHU216HW,2013-09-05 15:44:00,
2013-09-05 09:49:00,58.8,56.2,30.02,ESE,113,2.4,2.4,91,0.06,,,0.06,WUHU216HW,2013-09-05 15:49:00,
2013-09-05 09:54:00,58.6,56.1,30.00,ESE,113,0.0,2.4,92,0.06,,,0.06,WUHU216HW,2013-09-05 15:54:00,
2013-09-05 09:59:00,58.4,56.1,30.00,South,180,4.9,4.9,92,0.06,,,0.06,WUHU216HW,2013-09-05 15:59:00,
2013-09-05 10:04:00,58.8,56.5,30.01,SSW,203,2.0,4.9,92,0.06,,,0.06,WUHU216HW,2013-09-05 16:04:00,
2013-09-05 10:10:00,59.3,57.3,30.01,SSW,203,0.0,4.9,93,0.06,,,0.06,WUHU216HW,2013-09-05 16:10:00,
2013-09-05 10:15:00,60.0,58.0,30.01,West,270,0.0,1.5,93,0.06,,,0.06,WUHU216HW,2013-09-05 16:15:00,
2013-09-05 10:20:00,60.4,58.7,30.01,WSW,248,0.0,0.0,94,0.06,,,0.06,WUHU216HW,2013-09-05 16:20:00,
2013-09-05 10:25:00,60.8,58.8,30.00,ESE,113,0.0,2.4,94,0.06,,,0.06,WUHU216HW,2013-09-05 16:25:00,
2013-09-05 10:30:00,61.8,60.3,29.99,NE,45,1.1,2.4,94,0.02,,,0.06,WUHU216HW,2013-09-05 16:30:00,
2013-09-05 10:35:00,62.6,60.8,29.98,ENE,68,2.4,5.8,94,0.00,,,0.06,WUHU216HW,2013-09-05 16:35:00,
2013-09-05 10:40:00,61.8,59.5,29.97,ENE,68,2.4,7.8,93,0.00,,,0.06,WUHU216HW,2013-09-05 16:40:00,
2013-09-05 10:45:00,61.3,58.7,29.96,East,90,9.3,9.3,91,0.00,,,0.06,WUHU216HW,2013-09-05 16:45:00,
2013-09-05 10:50:00,60.6,57.7,29.95,East,90,1.3,9.3,90,0.00,,,0.06,WUHU216HW,2013-09-05 16:50:00,
2013-09-05 10:55:00,60.6,58.0,29.96,ESE,113,4.6,10.5,91,0.00,,,0.06,WUHU216HW,2013-09-05 16:55:00,
2013-09-05 11:00:00,60.9,58.3,29.96,East,90,2.6,10.5,92,0.00,,,0.06,WUHU216HW,2013-09-05 17:00:00,
2013-09-05 11:05:00,61.3,59.0,29.98,ESE,113,0.0,3.5,92,0.00,,,0.06,WUHU216HW,2013-09-05 17:05:00,
2013-09-05 11:10:00,61.7,59.6,29.99,SSE,158,0.0,3.5,93,0.00,,,0.06,WUHU216HW,2013-09-05 17:10:00,
2013-09-05 11:15:00,62.4,60.4,29.99,SSE,158,0.0,0.0,93,0.00,,,0.06,WUHU216HW,2013-09-05 17:15:00,
2013-09-05 11:20:00,62.7,60.1,29.99,NE,45,2.2,4.9,91,0.00,,,0.06,WUHU216HW,2013-09-05 17:20:00,
2013-09-05 11:25:00,63.5,61.1,29.99,ESE,113,0.0,4.9,92,0.00,,,0.06,WUHU216HW,2013-09-05 17:25:00,
2013-09-05 11:30:00,63.6,60.4,30.00,ESE,113,0.0,4.9,89,0.00,,,0.06,WUHU216HW,2013-09-05 17:30:00,
2013-09-05 11:35:00,64.9,61.6,29.99,ENE,68,0.0,4.9,89,0.00,,,0.06,WUHU216HW,2013-09-05 17:35:00,
2013-09-05 11:40:00,65.8,61.6,29.99,ESE,113,0.0,4.0,86,0.00,,,0.06,WUHU216HW,2013-09-05 17:40:00,
2013-09-05 11:45:00,66.3,61.7,29.99,NE,45,0.0,4.0,85,0.00,,,0.06,WUHU216HW,2013-09-05 17:45:00,
2013-09-05 11:50:00,66.0,60.6,29.99,ENE,68,2.4,5.5,83,0.00,,,0.06,WUHU216HW,2013-09-05 17:50:00,
2013-09-05 11:55:00,66.0,61.0,29.99,East,90,0.0,3.5,84,0.00,,,0.06,WUHU216HW,2013-09-05 17:55:00,
2013-09-05 12:00:00,66.9,61.5,29.99,East,90,5.3,6.2,83,0.00,,,0.06,WUHU216HW,2013-09-05 18:00:00,
2013-09-05 12:05:00,67.2,61.3,29.99,East,90,0.0,6.2,81,0.00,,,0.06,WUHU216HW,2013-09-05 18:05:00,
2013-09-05 12:11:00,66.9,60.9,29.98,NE,45,1.7,4.0,81,0.00,,,0.06,WUHU216HW,2013-09-05 18:11:00,
2013-09-05 12:15:00,66.5,60.2,29.98,SE,135,0.0,3.8,80,0.00,,,0.06,WUHU216HW,2013-09-05 18:15:00,
2013-09-05 12:21:00,66.7,60.7,29.98,ENE,68,2.6,2.6,81,0.00,,,0.06,WUHU216HW,2013-09-05 18:21:00,
2013-09-05 12:26:00,67.2,61.6,29.98,ENE,68,0.0,3.5,82,0.00,,,0.06,WUHU216HW,2013-09-05 18:26:00,
2013-09-05 12:31:00,68.5,62.1,29.99,NNW,338,2.6,4.2,80,0.00,,,0.06,WUHU216HW,2013-09-05 18:31:00,
2013-09-05 12:36:00,68.5,61.4,29.98,NE,45,0.0,5.1,78,0.00,,,0.06,WUHU216HW,2013-09-05 18:36:00,
2013-09-05 12:41:00,68.5,60.6,29.99,NE,45,6.4,6.4,76,0.00,,,0.06,WUHU216HW,2013-09-05 18:41:00,
2013-09-05 12:46:00,68.9,61.3,29.98,NNE,23,5.1,6.4,77,0.00,,,0.06,WUHU216HW,2013-09-05 18:46:00,
2013-09-05 12:51:00,68.9,61.5,29.98,NE,45,3.8,5.8,77,0.00,,,0.06,WUHU216HW,2013-09-05 18:51:00,
2013-09-05 12:56:00,69.0,61.5,29.98,NE,45,1.3,5.1,77,0.00,,,0.06,WUHU216HW,2013-09-05 18:56:00,
2013-09-05 13:01:00,69.0,61.5,29.99,NNE,23,2.2,4.4,77,0.00,,,0.06,WUHU216HW,2013-09-05 19:01:00,
2013-09-05 13:06:00,68.9,60.9,29.99,NE,45,2.2,4.4,76,0.00,,,0.06,WUHU216HW,2013-09-05 19:06:00,
2013-09-05 13:11:00,68.7,60.8,29.99,NNE,23,2.6,3.1,76,0.00,,,0.06,WUHU216HW,2013-09-05 19:11:00,
2013-09-05 13:16:00,68.7,60.4,29.99,NE,45,4.6,4.6,75,0.00,,,0.06,WUHU216HW,2013-09-05 19:16:00,
2013-09-05 13:21:00,68.7,60.0,29.98,NE,45,3.5,4.6,74,0.00,,,0.06,WUHU216HW,2013-09-05 19:21:00,
2013-09-05 13:27:00,68.7,60.0,29.98,NE,45,3.8,3.8,74,0.00,,,0.06,WUHU216HW,2013-09-05 19:27:00,
2013-09-05 13:32:00,69.0,60.4,29.98,East,90,0.0,3.8,74,0.00,,,0.06,WUHU216HW,2013-09-05 19:32:00,
2013-09-05 13:37:00,69.4,60.7,29.98,NE,45,3.5,5.3,74,0.00,,,0.06,WUHU216HW,2013-09-05 19:37:00,
2013-09-05 13:42:00,69.6,60.5,29.98,NE,45,0.0,5.3,73,0.00,,,0.06,WUHU216HW,2013-09-05 19:42:00,
2013-09-05 13:47:00,69.6,60.5,29.98,NE,45,0.0,4.6,73,0.00,,,0.06,WUHU216HW,2013-09-05 19:47:00,
2013-09-05 13:52:00,69.8,61.0,29.99,NE,45,2.0,2.4,74,0.00,,,0.06,WUHU216HW,2013-09-05 19:52:00,
2013-09-05 13:57:00,70.3,61.2,29.99,ENE,68,0.0,3.8,73,0.00,,,0.06,WUHU216HW,2013-09-05 19:57:00,
2013-09-05 14:02:00,70.8,61.7,29.99,NE,45,0.8,3.8,73,0.00,,,0.06,WUHU216HW,2013-09-05 20:02:00,
2013-09-05 14:07:00,71.2,61.7,29.99,NNW,338,0.0,3.8,72,0.00,,,0.06,WUHU216HW,2013-09-05 20:07:00,
2013-09-05 14:12:00,71.4,61.9,29.99,NNW,338,0.0,3.8,72,0.00,,,0.06,WUHU216HW,2013-09-05 20:12:00,
2013-09-05 14:17:00,71.7,61.5,29.99,SSE,158,4.9,4.9,70,0.00,,,0.06,WUHU216HW,2013-09-05 20:17:00,
2013-09-05 14:22:00,71.6,60.9,29.99,South,180,1.1,7.8,69,0.00,,,0.06,WUHU216HW,2013-09-05 20:22:00,
2013-09-05 14:27:00,71.7,61.0,29.98,WSW,248,2.2,7.8,69,0.00,,,0.06,WUHU216HW,2013-09-05 20:27:00,
2013-09-05 14:33:00,71.7,61.0,29.97,West,270,0.0,2.9,69,0.00,,,0.06,WUHU216HW,2013-09-05 20:33:00,
2013-09-05 14:38:00,71.7,61.0,29.98,WSW,248,0.0,2.4,69,0.00,,,0.06,WUHU216HW,2013-09-05 20:38:00,
2013-09-05 14:43:00,71.4,59.8,29.97,SSW,203,0.0,6.4,67,0.00,,,0.06,WUHU216HW,2013-09-05 20:43:00,
2013-09-05 14:48:00,71.4,59.8,29.97,SSW,203,1.3,6.4,67,0.00,,,0.06,WUHU216HW,2013-09-05 20:48:00,
2013-09-05 14:53:00,71.2,60.1,29.97,SW,225,4.6,5.5,68,0.00,,,0.06,WUHU216HW,2013-09-05 20:53:00,
2013-09-05 14:58:00,70.8,59.3,29.97,SSW,203,5.8,6.0,67,0.00,,,0.06,WUHU216HW,2013-09-05 20:58:00,
2013-09-05 15:03:00,70.7,59.5,29.97,SW,225,0.0,6.0,68,0.00,,,0.06,WUHU216HW,2013-09-05 21:03:00,
2013-09-05 15:08:00,70.5,59.4,29.98,SW,225,3.3,6.2,68,0.00,,,0.06,WUHU216HW,2013-09-05 21:08:00,
2013-09-05 15:13:00,70.3,59.2,29.98,SW,225,4.2,6.4,68,0.00,,,0.06,WUHU216HW,2013-09-05 21:13:00,
2013-09-05 15:18:00,70.1,59.2,29.98,SSW,203,1.7,8.0,68,0.00,,,0.06,WUHU216HW,2013-09-05 21:18:00,
2013-09-05 15:23:00,70.1,59.0,29.98,SSW,203,12.5,12.5,68,0.00,,,0.06,WUHU216HW,2013-09-05 21:23:00,
2013-09-05 15:28:00,70.1,59.0,29.98,SW,225,2.0,12.5,68,0.00,,,0.06,WUHU216HW,2013-09-05 21:28:00,
2013-09-05 15:33:00,70.1,59.4,29.97,WSW,248,1.5,7.8,69,0.00,,,0.06,WUHU216HW,2013-09-05 21:33:00,
2013-09-05 15:38:00,70.3,60.0,29.97,SW,225,1.5,8.5,70,0.00,,,0.06,WUHU216HW,2013-09-05 21:38:00,
2013-09-05 15:44:00,70.5,60.2,29.97,WSW,248,2.9,8.5,70,0.00,,,0.06,WUHU216HW,2013-09-05 21:44:00,
2013-09-05 15:49:00,70.7,60.4,29.97,SW,225,5.3,7.3,70,0.00,,,0.06,WUHU216HW,2013-09-05 21:49:00,
2013-09-05 15:54:00,71.0,60.3,29.96,SW,225,3.3,9.1,69,0.00,,,0.06,WUHU216HW,2013-09-05 21:54:00,
2013-09-05 15:59:00,71.6,60.4,29.96,SW,225,1.1,9.1,68,0.00,,,0.06,WUHU216HW,2013-09-05 21:59:00,
2013-09-05 16:04:00,72.1,60.7,29.96,South,180,3.5,8.9,67,0.00,,,0.06,WUHU216HW,2013-09-05 22:04:00,
2013-09-05 16:09:00,72.3,60.2,29.96,SW,225,0.0,11.1,66,0.00,,,0.06,WUHU216HW,2013-09-05 22:09:00,
2013-09-05 16:14:00,72.6,60.2,29.96,SSW,203,0.0,11.1,65,0.00,,,0.06,WUHU216HW,2013-09-05 22:14:00,
2013-09-05 16:19:00,72.8,60.3,29.96,SSW,203,0.0,5.8,65,0.00,,,0.06,WUHU216HW,2013-09-05 22:19:00,
2013-09-05 16:24:00,72.8,59.9,29.95,NE,45,2.0,5.8,64,0.00,,,0.06,WUHU216HW,2013-09-05 22:24:00,
2013-09-05 16:29:00,73.0,60.0,29.95,NE,45,5.8,6.9,64,0.00,,,0.06,WUHU216HW,2013-09-05 22:29:00,
2013-09-05 16:34:00,73.2,60.2,29.94,NE,45,4.6,6.9,64,0.00,,,0.06,WUHU216HW,2013-09-05 22:34:00,
2013-09-05 16:39:00,73.5,60.1,29.94,NNE,23,2.4,6.2,63,0.00,,,0.06,WUHU216HW,2013-09-05 22:39:00,
2013-09-05 16:44:00,73.5,60.1,29.94,NE,45,2.9,9.3,63,0.00,,,0.06,WUHU216HW,2013-09-05 22:44:00,
2013-09-05 16:49:00,73.2,59.3,29.94,NE,45,4.9,9.3,62,0.00,,,0.06,WUHU216HW,2013-09-05 22:49:00,
2013-09-05 16:55:00,72.8,59.6,29.93,NE,45,6.4,9.1,63,0.00,,,0.06,WUHU216HW,2013-09-05 22:55:00,
2013-09-05 17:00:00,72.8,59.4,29.93,NE,45,6.4,9.1,63,0.00,,,0.06,WUHU216HW,2013-09-05 23:00:00,
2013-09-05 17:05:00,73.0,59.6,29.93,ENE,68,6.0,8.7,63,0.00,,,0.06,WUHU216HW,2013-09-05 23:05:00,
2013-09-05 17:10:00,73.0,59.6,29.93,ESE,113,0.0,10.5,63,0.00,,,0.06,WUHU216HW,2013-09-05 23:10:00,
2013-09-05 17:15:00,73.2,59.8,29.92,ENE,68,6.7,11.1,63,0.00,,,0.06,WUHU216HW,2013-09-05 23:15:00,
2013-09-05 17:20:00,73.2,59.8,29.92,NE,45,4.9,11.1,63,0.00,,,0.06,WUHU216HW,2013-09-05 23:20:00,
2013-09-05 17:25:00,73.4,59.9,29.92,ESE,113,6.2,7.6,63,0.00,,,0.06,WUHU216HW,2013-09-05 23:25:00,
2013-09-05 17:30:00,73.7,59.8,29.92,NNE,23,0.0,6.7,62,0.00,,,0.06,WUHU216HW,2013-09-05 23:30:00,
2013-09-05 17:35:00,73.9,58.6,29.92,NE,45,4.6,8.7,59,0.00,,,0.06,WUHU216HW,2013-09-05 23:35:00,
2013-09-05 17:40:00,74.3,59.0,29.92,ESE,113,2.6,8.7,59,0.00,,,0.06,WUHU216HW,2013-09-05 23:40:00,
2013-09-05 17:45:00,75.0,59.7,29.91,East,90,0.0,5.3,59,0.00,,,0.06,WUHU216HW,2013-09-05 23:45:00,
2013-09-05 17:50:00,76.2,59.9,29.91,SSE,158,0.0,3.3,57,0.00,,,0.06,WUHU216HW,2013-09-05 23:50:00,
2013-09-05 17:55:00,76.4,60.2,29.91,ENE,68,4.2,4.2,57,0.00,,,0.06,WUHU216HW,2013-09-05 23:55:00,
2013-09-05 18:00:00,75.3,60.0,29.91,NE,45,5.5,6.4,59,0.00,,,0.06,WUHU216HW,2013-09-06 00:00:00,
2013-09-05 18:05:00,74.4,59.7,29.91,SSW,203,0.0,7.3,60,0.00,,,0.06,WUHU216HW,2013-09-06 00:05:00,
2013-09-05 18:10:00,73.2,59.3,29.91,North,0,0.0,7.3,62,0.00,,,0.06,WUHU216HW,2013-09-06 00:10:00,
2013-09-05 18:15:00,72.5,59.1,29.91,SE,135,0.0,5.8,63,0.00,,,0.06,WUHU216HW,2013-09-06 00:15:00,
2013-09-05 18:20:00,72.3,59.4,29.91,ESE,113,2.6,2.6,64,0.00,,,0.06,WUHU216HW,2013-09-06 00:20:00,
2013-09-05 18:25:00,72.1,59.2,29.90,ESE,113,1.5,5.8,64,0.00,,,0.06,WUHU216HW,2013-09-06 00:25:00,
2013-09-05 18:30:00,72.3,59.4,29.90,NE,45,4.6,5.8,64,0.00,,,0.06,WUHU216HW,2013-09-06 00:30:00,
2013-09-05 18:35:00,72.1,59.2,29.91,ENE,68,3.5,6.0,64,0.00,,,0.06,WUHU216HW,2013-09-06 00:35:00,
2013-09-05 18:40:00,73.0,59.3,29.90,ENE,68,4.6,9.6,63,0.00,,,0.06,WUHU216HW,2013-09-06 00:40:00,
2013-09-05 18:45:00,73.4,59.9,29.90,ENE,68,3.5,9.6,63,0.00,,,0.06,WUHU216HW,2013-09-06 00:45:00,
2013-09-05 18:50:00,73.2,59.8,29.90,NE,45,2.6,6.4,63,0.00,,,0.06,WUHU216HW,2013-09-06 00:50:00,
2013-09-05 18:55:00,72.6,59.3,29.90,NE,45,5.3,8.2,63,0.00,,,0.06,WUHU216HW,2013-09-06 00:55:00,
2013-09-05 19:00:00,72.6,59.3,29.90,ESE,113,0.0,6.4,63,0.00,,,0.06,WUHU216HW,2013-09-06 01:00:00,
2013-09-05 19:06:00,72.1,59.2,29.90,East,90,4.6,6.2,64,0.00,,,0.06,WUHU216HW,2013-09-06 01:06:00,
2013-09-05 19:11:00,71.9,59.0,29.90,ENE,68,2.9,4.6,64,0.00,,,0.06,WUHU216HW,2013-09-06 01:11:00,
2013-09-05 19:16:00,71.6,59.1,29.90,East,90,1.5,4.0,65,0.00,,,0.06,WUHU216HW,2013-09-06 01:16:00,
2013-09-05 19:21:00,71.2,59.2,29.90,SE,135,1.3,4.0,66,0.00,,,0.06,WUHU216HW,2013-09-06 01:21:00,
2013-09-05 19:26:00,70.5,58.9,29.90,East,90,4.0,5.1,67,0.00,,,0.06,WUHU216HW,2013-09-06 01:26:00,
2013-09-05 19:31:00,69.6,58.5,29.90,SSE,158,2.9,5.1,68,0.00,,,0.06,WUHU216HW,2013-09-06 01:31:00,
2013-09-05 19:36:00,69.6,58.5,29.90,ENE,68,2.2,3.5,68,0.00,,,0.06,WUHU216HW,2013-09-06 01:36:00,
2013-09-05 19:41:00,69.6,58.9,29.89,East,90,4.2,4.2,69,0.00,,,0.06,WUHU216HW,2013-09-06 01:41:00,
2013-09-05 19:46:00,69.9,58.8,29.89,North,0,0.0,4.6,68,0.00,,,0.06,WUHU216HW,2013-09-06 01:46:00,
2013-09-05 19:51:00,69.8,58.7,29.89,ESE,113,2.9,4.6,68,0.00,,,0.06,WUHU216HW,2013-09-06 01:51:00,
2013-09-05 19:56:00,69.2,58.6,29.89,ESE,113,0.0,2.9,69,0.00,,,0.06,WUHU216HW,2013-09-06 01:56:00,
2013-09-05 20:01:00,68.5,58.4,29.89,SE,135,0.0,4.9,70,0.00,,,0.06,WUHU216HW,2013-09-06 02:01:00,
2013-09-05 20:06:00,67.8,57.7,29.89,ENE,68,3.8,4.9,70,0.00,,,0.06,WUHU216HW,2013-09-06 02:06:00,
2013-09-05 20:11:00,67.6,57.9,29.90,ESE,113,2.0,3.8,71,0.00,,,0.06,WUHU216HW,2013-09-06 02:11:00,
2013-09-05 20:16:00,67.2,57.9,29.90,ESE,113,1.7,3.8,72,0.00,,,0.06,WUHU216HW,2013-09-06 02:16:00,
2013-09-05 20:21:00,67.1,57.7,29.91,ESE,113,0.0,2.2,72,0.00,,,0.06,WUHU216HW,2013-09-06 02:21:00,
2013-09-05 20:26:00,66.9,57.5,29.90,ESE,113,2.6,2.6,72,0.00,,,0.06,WUHU216HW,2013-09-06 02:26:00,
2013-09-05 20:31:00,66.7,57.7,29.91,ESE,113,2.6,2.6,73,0.00,,,0.06,WUHU216HW,2013-09-06 02:31:00,
2013-09-05 20:36:00,66.7,57.7,29.91,ESE,113,1.1,3.3,73,0.00,,,0.06,WUHU216HW,2013-09-06 02:36:00,
2013-09-05 20:41:00,66.9,57.5,29.91,ESE,113,3.5,3.5,72,0.00,,,0.06,WUHU216HW,2013-09-06 02:41:00,
2013-09-05 20:46:00,66.9,57.5,29.90,East,90,0.0,3.5,72,0.00,,,0.06,WUHU216HW,2013-09-06 02:46:00,
2013-09-05 20:52:00,66.7,57.7,29.90,East,90,0.0,1.7,73,0.00,,,0.06,WUHU216HW,2013-09-06 02:52:00,
2013-09-05 20:57:00,66.3,57.4,29.91,East,90,0.0,0.0,73,0.00,,,0.06,WUHU216HW,2013-09-06 02:57:00,
2013-09-05 21:02:00,66.0,57.0,29.91,East,90,0.0,0.0,74,0.00,,,0.06,WUHU216HW,2013-09-06 03:02:00,
2013-09-05 21:07:00,65.8,57.2,29.91,SSW,203,0.0,0.0,74,0.00,,,0.06,WUHU216HW,2013-09-06 03:07:00,
2013-09-05 21:12:00,65.6,57.1,29.91,SSE,158,0.0,0.0,74,0.00,,,0.06,WUHU216HW,2013-09-06 03:12:00,
2013-09-05 21:17:00,65.3,57.1,29.91,SSE,158,0.0,0.0,75,0.00,,,0.06,WUHU216HW,2013-09-06 03:17:00,
2013-09-05 21:22:00,65.1,57.3,29.91,SSE,158,0.0,0.0,76,0.00,,,0.06,WUHU216HW,2013-09-06 03:22:00,
2013-09-05 21:27:00,64.7,57.1,29.92,SSE,158,0.0,0.0,77,0.00,,,0.06,WUHU216HW,2013-09-06 03:27:00,
2013-09-05 21:32:00,64.4,57.0,29.92,SSE,158,0.0,0.0,77,0.00,,,0.06,WUHU216HW,2013-09-06 03:32:00,
2013-09-05 21:37:00,64.2,57.2,29.91,East,90,3.3,3.3,78,0.00,,,0.06,WUHU216HW,2013-09-06 03:37:00,
2013-09-05 21:42:00,65.1,57.3,29.91,ESE,113,2.6,3.3,76,0.00,,,0.06,WUHU216HW,2013-09-06 03:42:00,
2013-09-05 21:47:00,65.4,57.6,29.91,SSE,158,0.0,3.3,76,0.00,,,0.06,WUHU216HW,2013-09-06 03:47:00,
2013-09-05 21:52:00,65.8,57.6,29.92,SE,135,0.0,3.3,75,0.00,,,0.06,WUHU216HW,2013-09-06 03:52:00,
2013-09-05 21:57:00,65.8,57.6,29.92,NW,315,0.0,2.0,75,0.00,,,0.06,WUHU216HW,2013-09-06 03:57:00,
2013-09-05 22:01:00,65.4,57.3,29.92,NW,315,0.0,2.0,75,0.00,,,0.06,WUHU216HW,2013-09-06 04:01:00,
2013-09-05 22:02:00,65.4,57.3,29.92,NW,315,0.0,2.0,75,0.00,,,0.06,WUHU216HW,2013-09-06 04:02:00,
2013-09-05 22:04:00,65.3,57.1,29.92,NW,315,0.0,0.8,75,0.00,,,0.06,WUHU216HW,2013-09-06 04:04:00,
2013-09-05 22:06:00,65.1,56.9,29.92,NW,315,0.0,0.8,75,0.00,,,0.06,WUHU216HW,2013-09-06 04:06:00,
2013-09-05 22:11:00,64.9,57.1,29.92,NW,315,0.0,0.0,76,0.00,,,0.06,WUHU216HW,2013-09-06 04:11:00,
2013-09-05 22:16:00,64.5,56.8,29.92,NW,315,0.0,0.0,76,0.00,,,0.06,WUHU216HW,2013-09-06 04:16:00,
2013-09-05 22:21:00,64.2,56.8,29.92,NW,315,0.0,0.0,77,0.00,,,0.06,WUHU216HW,2013-09-06 04:21:00,
2013-09-05 22:26:00,64.2,57.2,29.92,SW,225,0.0,0.0,78,0.00,,,0.06,WUHU216HW,2013-09-06 04:26:00,
2013-09-05 22:31:00,64.2,57.2,29.92,SW,225,0.0,0.0,78,0.00,,,0.06,WUHU216HW,2013-09-06 04:31:00,
2013-09-05 22:36:00,64.2,57.2,29.92,SW,225,0.0,0.0,78,0.00,,,0.06,WUHU216HW,2013-09-06 04:36:00,
2013-09-05 22:41:00,64.2,57.2,29.92,SW,225,0.0,0.0,78,0.00,,,0.06,WUHU216HW,2013-09-06 04:41:00,
2013-09-05 22:46:00,64.2,57.2,29.93,ENE,68,2.0,2.0,78,0.00,,,0.06,WUHU216HW,2013-09-06 04:46:00,
2013-09-05 22:51:00,64.0,57.3,29.93,ENE,68,0.0,2.6,79,0.00,,,0.06,WUHU216HW,2013-09-06 04:51:00,
2013-09-05 22:56:00,63.6,57.0,29.93,ENE,68,0.0,2.6,79,0.00,,,0.06,WUHU216HW,2013-09-06 04:56:00,
2013-09-05 23:01:00,63.5,57.2,29.92,ENE,68,0.0,0.0,80,0.00,,,0.06,WUHU216HW,2013-09-06 05:01:00,
2013-09-05 23:07:00,63.5,57.5,29.92,ENE,68,0.0,0.0,81,0.00,,,0.06,WUHU216HW,2013-09-06 05:07:00,
2013-09-05 23:12:00,63.6,57.3,29.92,SSE,158,2.0,2.9,80,0.00,,,0.06,WUHU216HW,2013-09-06 05:12:00,
2013-09-05 23:17:00,64.0,57.3,29.93,East,90,0.0,2.9,79,0.00,,,0.06,WUHU216HW,2013-09-06 05:17:00,
2013-09-05 23:22:00,64.2,57.5,29.92,East,90,0.0,0.0,79,0.00,,,0.06,WUHU216HW,2013-09-06 05:22:00,
2013-09-05 23:27:00,64.0,57.3,29.93,East,90,0.0,0.0,79,0.00,,,0.06,WUHU216HW,2013-09-06 05:27:00,
2013-09-05 23:32:00,63.6,57.3,29.93,SSW,203,0.0,0.0,80,0.00,,,0.06,WUHU216HW,2013-09-06 05:32:00,
2013-09-05 23:37:00,63.5,57.2,29.94,SSW,203,1.7,1.7,80,0.00,,,0.06,WUHU216HW,2013-09-06 05:37:00,
2013-09-05 23:42:00,63.6,57.2,29.95,South,180,9.8,9.8,80,0.00,,,0.06,WUHU216HW,2013-09-06 05:42:00,
2013-09-05 23:47:00,64.5,58.2,29.95,SSE,158,4.4,9.8,80,0.00,,,0.06,WUHU216HW,2013-09-06 05:47:00,
2013-09-05 23:52:00,64.2,58.9,29.94,SW,225,0.0,7.3,82,0.00,,,0.06,WUHU216HW,2013-09-06 05:52:00,
2013-09-05 23:57:00,63.6,59.0,29.95,SW,225,0.0,2.6,85,0.00,,,0.06,WUHU216HW,2013-09-06 05:57:00,